Theta_e
319 320 320 319 313 311 311 313 314 314 312 311 311 311 311 311 311 312 312 314 315 316 319 318 316 314 315 320 321 320 319 314 315 317 319 324 330 340 345 340 341 347 350 349 349 349 346
317 319 320 320 319 315 312 310 311 311 312 311 311 311 311 311 311 311 312 315 316 318 321 320 317 315 319 324 323 316 318 314 317 317 318 326 333 336 336 341 344 346 348 349 349 349 347
313 313 316 319 320 319 317 312 309 309 309 310 311 311 311 311 310 311 313 316 318 319 321 321 318 318 321 324 322 321 319 318 315 316 318 321 328 333 332 345 346 346 350 350 349 349 349
317 316 313 314 316 318 319 317 312 309 308 309 309 309 310 310 310 311 315 317 319 320 321 322 319 320 321 322 321 322 321 318 315 315 316 320 324 330 336 347 348 350 349 351 349 349 349
320 319 318 316 313 314 316 318 315 310 309 309 309 310 310 309 310 313 317 320 320 321 321 322 322 323 325 322 322 323 323 323 318 316 315 322 323 331 340 346 346 347 348 348 352 347 349
320 320 319 319 317 315 313 315 317 315 311 309 312 312 311 309 311 315 320 320 320 321 321 321 322 324 323 324 322 322 322 317 318 316 316 320 329 333 337 343 342 342 342 346 352 349 350
318 319 321 320 319 319 317 313 314 316 314 310 312 313 311 309 313 319 320 321 324 324 323 324 324 323 323 323 320 322 320 315 315 316 319 322 328 332 334 338 335 337 340 346 347 348 350
318 318 320 321 320 320 320 319 314 314 315 312 312 313 310 310 315 319 321 322 321 321 325 323 323 323 323 324 322 323 320 321 317 319 320 324 326 330 332 337 336 336 342 346 347 346 348
317 318 318 319 320 320 321 321 320 315 315 313 312 314 310 311 317 319 320 320 321 321 326 324 324 324 324 324 323 323 323 322 321 320 320 322 325 329 330 332 334 336 339 342 343 347 346
316 317 317 318 318 318 318 320 320 320 314 314 313 315 310 313 318 319 320 320 322 322 329 326 326 325 324 323 323 322 323 323 322 322 322 323 326 328 330 331 333 335 336 342 342 344 348
318 317 316 317 317 318 318 317 319 320 318 314 313 316 311 316 318 319 320 321 322 321 329 326 325 323 323 324 323 323 322 322 323 323 323 324 325 328 329 330 330 334 337 341 341 343 344
321 320 319 318 317 318 318 318 317 319 320 314 313 316 314 314 317 318 320 320 322 329 328 327 325 325 325 325 323 322 322 322 322 323 323 324 323 326 328 329 330 335 338 341 341 342 344
319 320 321 320 319 318 318 319 318 317 319 316 313 316 316 314 320 319 320 322 329 326 324 326 327 327 327 326 324 324 324 324 324 324 324 323 323 323 325 327 329 333 335 338 340 342 344
319 319 320 321 321 320 318 319 319 317 318 317 313 316 317 318 318 319 320 328 327 324 325 325 326 328 328 326 326 325 324 324 325 325 325 324 324 324 326 327 330 332 333 334 341 345 346
320 321 320 321 321 321 320 318 319 318 317 317 313 317 318 318 319 320 324 327 325 325 325 325 327 328 328 327 328 325 325 326 327 327 328 325 326 327 330 327 330 331 333 333 336 340 342
321 321 318 320 321 320 320 320 318 319 317 317 313 320 322 319 321 322 327 323 326 324 324 324 327 327 329 328 328 326 326 327 327 326 326 327 330 332 335 335 332 335 333 335 335 343 345
322 322 319 319 321 320 320 320 320 318 318 316 315 321 322 321 321 325 327 326 325 324 324 324 324 327 327 328 329 327 328 329 328 327 325 328 329 333 337 339 337 336 336 335 334 337 346
324 323 320 320 321 320 320 320 320 319 318 317 315 323 322 321 325 326 327 325 323 324 322 323 324 326 327 327 329 329 328 330 326 326 328 327 329 330 333 330 330 337 338 335 336 338 340
323 324 320 320 321 320 320 319 319 318 318 316 319 321 322 321 327 327 325 324 325 324 324 322 323 323 326 327 328 327 328 326 326 327 329 327 329 330 331 331 331 332 334 336 334 337 338
322 322 320 321 321 319 319 319 318 318 318 316 318 323 323 323 324 327 326 326 326 323 323 321 323 324 326 326 326 328 327 327 326 327 322 324 328 329 330 332 332 332 335 334 333 333 332
323 322 320 321 320 319 318 318 317 317 317 316 317 321 324 326 326 325 327 327 326 324 323 322 325 324 324 325 325 326 326 327 326 323 326 328 331 330 332 332 331 332 334 334 335 336 336
323 321 318 321 319 318 318 316 316 316 316 317 320 321 325 328 328 328 323 327 326 325 323 323 324 323 324 324 324 326 326 326 326 327 327 326 331 331 333 333 334 331 331 331 336 336 338
321 320 319 320 318 317 316 315 314 314 314 318 316 318 321 323 328 329 327 326 326 324 321 321 323 324 324 324 324 324 323 325 326 327 327 327 328 330 331 332 331 334 334 334 335 337 337
320 318 319 318 317 316 315 314 313 313 312 314 315 315 318 321 324 328 327 327 327 326 323 319 321 324 323 323 322 323 324 325 325 326 325 327 327 328 329 332 331 333 334 335 336 338 340
319 317 319 317 317 316 314 314 313 312 312 312 315 315 317 321 320 322 327 329 328 325 322 319 322 322 322 322 323 323 324 325 325 326 325 327 328 328 328 329 328 329 333 333 333 334 336
318 317 319 317 316 315 314 313 313 312 312 312 313 314 315 320 321 320 325 327 329 323 321 321 315 320 319 321 322 324 321 322 323 326 325 326 329 328 328 327 328 331 332 331 331 331 334
316 318 318 316 315 315 313 313 313 312 312 312 312 314 314 318 318 320 321 325 326 322 322 320 317 317 319 323 323 323 323 326 324 325 327 327 327 327 328 328 327 330 329 329 332 334 332
315 318 317 316 315 315 313 313 313 312 312 311 313 313 313 318 318 318 320 325 326 323 323 321 319 320 320 323 323 324 325 328 326 326 326 326 326 327 327 329 329 328 329 331 332 332 333
317 318 317 316 314 315 313 312 313 312 312 311 312 313 313 313 317 317 317 318 321 323 325 320 323 321 322 324 324 325 326 328 324 325 329 325 324 327 325 329 330 329 330 329 330 333 333
Wind_Speed
18 18 16 14 14 14 13 12 11 10 8 7 7 8 8 9 9 10 9 10 12 13 11 8 7 4 7 3 6 2 5 11 14 11 9 9 12 7 5 3 4 5 7 8 6 6 9
19 19 18 15 14 14 13 12 11 10 9 8 7 8 8 9 9 9 9 11 12 13 10 8 6 6 6 6 6 6 9 14 10 9 8 9 7 2 3 2 3 7 10 11 9 8 10
20 19 17 16 15 14 14 13 12 11 10 9 8 8 8 8 9 8 8 10 13 11 9 9 9 9 5 7 8 11 9 8 9 8 7 8 5 6 2 6 12 13 12 10 6 5 6
20 19 18 16 15 15 14 13 12 11 10 9 9 9 9 8 7 6 8 10 11 8 8 7 8 10 7 4 5 7 8 6 8 5 6 6 4 3 4 9 6 5 7 6 5 7 8
19 19 19 18 17 15 15 14 13 12 11 11 10 10 10 8 6 5 8 11 7 3 6 5 5 3 8 2 1 5 4 3 8 6 5 9 5 6 8 12 8 7 3 3 6 5 5
19 18 17 17 17 17 16 15 14 13 13 12 11 11 10 7 3 4 9 6 2 2 2 3 5 3 4 5 3 7 6 7 7 10 8 10 10 10 9 10 8 8 4 3 5 7 8
19 18 18 17 18 18 18 17 16 15 14 13 13 12 10 4 1 4 10 5 3 2 4 4 4 3 6 5 6 8 7 8 11 11 9 15 11 14 15 11 5 2 2 1 4 8 8
19 19 19 18 18 18 18 19 18 17 15 14 13 12 9 1 4 3 8 5 6 4 1 2 0 1 3 4 7 10 9 4 7 8 6 9 14 13 2 3 5 4 2 4 5 6 7
19 19 19 19 19 19 19 19 19 18 16 14 13 12 6 3 5 2 4 5 11 7 5 4 2 1 2 5 4 10 10 4 6 8 12 11 12 7 8 10 10 8 5 3 6 7 8
19 19 20 20 20 20 19 19 19 19 18 15 12 10 3 5 4 1 1 10 12 5 5 6 6 5 5 2 5 7 8 2 5 6 8 8 4 11 11 12 11 10 4 2 1 6 4
21 21 21 20 20 20 20 20 19 19 18 15 11 8 1 9 4 1 3 9 9 2 2 3 5 3 3 5 7 9 8 5 3 7 8 6 8 12 12 11 9 3 1 5 5 8 9
23 23 22 22 21 21 20 21 20 19 18 15 10 6 2 8 5 5 4 10 3 7 3 4 3 4 7 5 5 9 9 7 1 5 8 1 2 7 12 12 10 4 6 5 6 7 10
24 25 25 23 23 22 21 21 21 20 18 15 10 5 3 7 5 5 5 4 6 3 3 4 2 3 3 7 7 9 9 9 5 8 9 10 12 9 7 11 10 11 11 8 6 6 6
24 25 25 25 24 23 22 21 21 20 18 15 8 4 5 7 8 6 4 7 4 2 2 3 2 4 5 5 5 5 7 7 5 7 3 7 10 14 13 16 10 15 16 10 4 6 6
24 25 25 25 24 23 22 22 21 21 19 14 6 4 6 8 7 6 7 8 1 2 1 2 6 5 6 6 3 8 3 1 3 3 6 4 3 8 6 12 10 13 11 13 5 12 6
24 25 26 25 24 23 22 22 21 21 19 15 5 4 6 9 7 4 7 2 4 1 2 5 4 3 3 5 6 6 6 4 1 2 5 2 3 7 7 6 9 11 9 9 9 4 5
24 26 27 25 24 22 21 21 21 20 19 12 2 6 6 9 8 7 7 4 4 4 3 3 2 4 0 1 4 5 5 6 3 2 4 5 6 7 10 10 9 8 11 9 2 6 3
25 26 26 24 23 21 20 20 20 20 18 11 1 7 5 12 9 5 7 4 1 5 5 4 3 4 4 0 4 5 3 4 4 3 3 4 6 6 6 3 4 9 12 12 6 8 3
28 26 26 23 21 20 19 19 18 18 18 16 6 3 5 9 7 8 5 6 5 7 9 7 5 3 1 3 4 3 2 3 3 2 6 3 4 6 12 10 6 8 7 12 12 11 12
25 26 26 21 20 19 18 17 16 16 14 14 4 4 7 9 8 9 10 10 9 7 7 5 2 4 6 7 4 2 5 3 0 2 3 4 4 9 7 8 4 4 7 8 12 12 12
24 24 25 18 20 18 17 17 14 14 12 9 3 0 5 7 12 11 7 3 12 8 9 8 6 9 5 4 5 6 4 6 5 2 2 5 6 5 4 2 4 5 0 1 5 8 8
22 22 21 17 17 16 15 16 16 11 10 3 4 4 3 8 5 11 9 12 12 11 10 12 10 10 6 4 3 2 5 4 4 3 1 2 1 6 3 3 3 9 5 4 6 1 0
21 18 17 15 14 13 14 15 16 12 7 2 4 4 4 3 8 10 12 15 11 5 10 10 11 8 9 5 1 1 1 2 2 5 1 4 1 5 5 6 4 10 9 5 3 2 5
20 16 15 14 12 12 14 15 16 14 8 5 6 2 5 8 7 11 6 12 10 10 10 12 11 13 5 10 9 4 4 4 4 1 4 4 4 3 2 6 11 5 3 1 3 1 2
17 14 14 12 12 11 12 14 16 16 10 5 6 3 4 7 12 11 12 11 7 8 12 9 8 3 16 9 4 4 7 9 8 3 3 3 6 4 7 11 3 6 5 6 6 7 3
16 13 13 12 11 10 11 13 16 13 10 6 7 7 3 6 7 13 7 11 8 7 8 9 4 13 11 5 3 5 4 2 4 6 4 4 5 7 6 9 8 6 6 2 1 9 10
14 12 13 12 11 10 10 12 13 12 11 6 7 6 5 8 16 8 9 8 3 6 7 11 10 8 9 6 6 3 3 1 4 5 5 8 7 10 9 9 5 6 6 5 8 3 6
12 13 13 11 10 10 10 11 12 11 10 6 6 8 7 8 17 11 12 10 7 6 7 8 8 5 7 6 4 3 4 5 5 0 3 5 5 5 4 5 8 10 7 6 5 5 4
13 12 12 11 10 10 10 11 10 10 10 9 7 10 9 15 13 11 14 19 16 8 4 7 2 14 9 6 2 2 4 4 7 6 4 6 4 5 4 4 5 9 4 3 3 5 4
Wind_Direction
39 39 38 36 31 28 25 22 19 13 7 359 352 351 351 350 349 346 346 351 355 356 356 358 4 37 123 112 52 360 164 168 168 156 172 183 192 198 192 125 146 118 103 93 128 148 151
35 36 35 32 27 24 22 19 15 11 4 357 348 344 343 342 340 339 343 351 353 354 360 7 26 103 104 103 57 62 154 161 170 162 172 174 195 228 125 146 306 119 103 112 130 114 141
35 33 31 29 23 20 17 14 9 4 1 355 351 344 338 334 334 336 341 348 347 356 9 31 73 101 64 87 92 74 112 150 157 174 178 190 185 235 164 122 129 131 123 122 137 145 103
33 32 30 27 23 21 16 14 9 5 1 356 352 345 338 333 332 333 343 345 341 352 19 52 84 85 82 103 95 89 96 129 162 166 167 188 191 197 241 114 155 198 183 192 124 173 155
28 27 26 25 23 19 15 13 9 3 360 353 350 346 339 337 334 341 348 339 344 12 9 65 75 76 93 53 94 190 140 135 161 163 174 174 184 214 173 197 180 187 222 186 155 200 165
24 22 22 22 22 20 16 12 7 0 356 350 348 346 341 339 341 3 349 350 40 47 34 57 81 184 116 81 113 146 142 127 151 157 146 183 203 210 214 215 227 173 207 204 163 175 207
19 18 19 19 17 17 16 11 6 1 355 350 349 349 344 344 101 31 18 43 355 69 19 350 14 56 113 111 103 147 141 125 141 177 182 190 207 213 192 225 13 39 334 1 124 168 197
17 16 16 17 15 12 12 9 4 0 354 350 349 350 345 37 133 74 40 42 29 328 295 35 6 250 197 181 129 155 162 193 184 177 178 179 222 202 73 183 224 231 170 111 120 158 243
14 13 13 13 11 8 6 3 1 358 352 347 348 352 352 148 149 104 44 13 0 0 252 126 164 153 126 182 105 166 184 161 180 175 202 205 205 108 200 195 216 227 267 139 348 184 229
11 9 7 7 7 4 1 359 356 355 351 345 345 352 358 157 149 152 23 354 355 351 221 110 159 146 168 202 129 160 190 253 190 186 199 226 120 203 205 210 229 220 198 218 222 256 309
9 7 3 1 1 0 357 355 353 350 348 342 338 341 315 180 168 215 278 347 347 297 257 102 111 159 186 257 132 174 198 227 178 167 228 131 186 202 214 219 212 337 214 192 273 272 285
2 360 358 356 355 354 353 352 351 348 343 340 329 323 262 204 218 239 294 333 324 232 104 139 147 184 202 170 144 148 191 223 79 177 224 74 237 219 225 224 217 111 203 224 255 271 261
355 355 353 349 348 349 348 348 348 346 339 337 320 294 219 189 201 236 296 302 232 281 157 136 105 187 197 136 144 179 182 192 218 209 193 188 204 205 230 219 213 208 224 236 233 222 258
345 345 345 345 343 343 343 343 343 345 338 335 311 253 215 212 218 244 290 238 253 97 196 127 244 184 172 172 131 161 177 209 191 267 248 230 175 201 199 232 200 216 235 251 255 277 315
338 340 340 340 339 337 338 338 339 342 337 334 301 244 239 222 218 226 247 236 128 172 42 254 181 219 148 158 276 203 206 76 32 287 289 197 152 163 224 219 250 191 235 278 278 287 257
334 336 338 337 336 334 335 335 336 339 338 334 303 223 216 209 202 204 247 327 161 227 271 228 260 264 213 146 205 230 193 97 58 344 283 53 202 179 160 198 220 277 225 215 230 276 265
329 331 333 335 335 334 333 334 335 336 340 336 296 229 218 195 188 228 237 137 173 164 225 248 215 205 300 216 274 190 149 125 1 89 271 308 265 132 175 209 186 187 221 248 256 288 291
324 325 328 332 332 334 335 336 337 337 343 338 250 227 197 171 215 234 211 187 179 184 183 203 267 304 276 204 206 214 207 349 11 320 295 17 289 180 157 98 212 297 281 180 181 271 250
320 320 324 326 329 331 334 336 339 342 346 354 312 257 192 179 225 211 159 199 236 213 205 196 214 273 258 246 250 249 175 97 358 326 352 358 267 236 186 172 175 214 228 262 279 127 253
313 317 321 323 327 330 333 337 340 340 343 343 297 221 183 207 252 274 194 215 210 211 234 222 208 230 209 217 211 242 223 132 171 353 355 263 264 290 298 343 110 177 228 234 261 259 255
307 309 315 319 322 327 331 334 340 338 338 344 263 235 328 192 210 223 225 233 217 197 219 209 193 232 221 231 227 232 231 188 176 107 252 293 276 282 319 281 242 143 115 221 259 339 315
300 303 311 313 318 323 327 333 335 340 332 339 293 318 291 281 232 220 184 218 234 232 202 203 235 196 209 246 266 253 250 236 290 162 282 283 257 259 173 137 242 217 208 146 261 57 103
299 299 302 307 311 320 324 333 332 339 339 313 303 294 288 208 220 221 212 230 225 224 222 246 216 202 216 235 202 37 300 319 358 292 305 287 286 249 233 174 225 218 189 207 276 172 301
295 299 297 300 304 315 323 332 332 332 331 287 263 261 260 253 230 229 236 229 221 219 248 213 215 224 117 130 125 160 193 199 206 187 280 258 259 268 235 220 230 77 121 313 273 221 115
285 290 289 289 295 309 321 327 329 326 326 305 267 208 259 260 259 247 236 234 243 242 225 223 169 165 150 156 215 234 220 222 216 250 222 261 257 205 260 226 194 164 190 205 233 177 167
275 278 279 279 288 300 316 324 330 329 329 321 277 243 224 288 241 249 275 239 244 221 184 165 118 152 172 195 202 240 246 295 219 175 241 214 235 266 226 274 252 46 99 168 247 250 160
268 270 272 273 282 296 312 316 330 333 331 310 274 248 210 253 262 258 230 256 207 226 213 157 156 173 190 200 217 241 219 230 234 226 168 203 242 245 232 244 254 106 136 168 227 78 123
265 268 263 267 279 290 303 308 322 331 329 310 265 266 216 256 263 259 243 243 236 232 220 145 149 186 182 215 240 168 248 187 244 322 229 232 235 208 242 260 250 138 147 242 71 122 121
267 261 257 263 275 283 296 305 308 325 318 323 277 275 244 237 256 275 249 241 240 246 295 203 348 166 185 211 211 161 204 185 243 233 182 236 253 344 273 41 91 167 56 135 177 148 133